Flag for Italy Weather past 2 weeks in Venice, Italy

Now
50 °F

Passing clouds.


Feels Like: 50 °F
Forecast: 45 / 51 °F
Wind: 1 mph from North

Location: Venice / Tessera

Current Time: Dec 17, 2014 at 10:58:23 PM

Latest Report: Dec 17, 2014 at 9:50 PM


Visibility: N/A

Pressure: 29.95 "Hg

Humidity: 82%

Dew point: 45 °F

Location of VeniceLocation

Historic Weather in Venice — Graph

°F

Venice temperature yesterday

Maximum temperature yesterday: 52 °F (at 4:20 PM)
Minimum temperature yesterday: 46 °F (at 12:20 AM)
Average temperature yesterday: 49 °F

Past Weeks' High & Low Weather Summary

 TemperatureHumidityPressure
High57 °F (Dec 17, 11:50 AM)100% (Dec 16, 6:20 AM)30.24 "Hg (Dec 16, 6:20 AM)
Low32 °F (Dec 12, 4:50 AM)32% (Dec 10, 1:20 PM)29.74 "Hg (Dec 2, 9:20 PM)
Average46 °F77%30.02 "Hg
* Reported Dec 2 9:20 PM — Dec 17 9:20 PM, Venice, Weather by CustomWeather, © 2014

Note: Actual official high and low records may vary slightly from our data, if they occured in-between our weather recording intervals... More about our weather records

Advertising

Venice weather history for previous 24 hours

 ConditionsComfort  
Time TempWeatherWind HumidityBarometerVisibility
9:20 PM
Dec 17
50 °FPassing clouds.2 mph82%29.89 "HgN/A
8:50 PM50 °FLight rain. Passing clouds.No wind82%29.92 "HgN/A
8:20 PM50 °FPassing clouds.No wind76%29.92 "HgN/A
7:50 PM52 °FPassing clouds.3 mph72%29.92 "HgN/A
7:20 PM52 °FPassing clouds.1 mph72%29.92 "HgN/A
6:50 PM52 °FPassing clouds.2 mph72%29.92 "HgN/A
6:20 PM50 °FPassing clouds.No wind82%29.92 "HgN/A
5:50 PM52 °FPassing clouds.No wind77%29.92 "HgN/A
5:20 PM52 °FPassing clouds.1 mph77%29.89 "HgN/A
4:50 PM52 °FPassing clouds.2 mph82%29.89 "HgN/A
4:20 PM54 °FPassing clouds.2 mph77%29.89 "HgN/A
3:50 PM54 °FPassing clouds.3 mph72%29.89 "HgN/A
3:20 PM55 °FPassing clouds.3 mph67%29.89 "HgN/A
2:50 PM55 °FSunny.2 mph67%29.89 "Hg10 mi
2:20 PM57 °FSunny.3 mph59%29.89 "Hg10 mi
1:50 PM57 °FSunny.3 mph59%29.92 "Hg10 mi
1:20 PM57 °FPassing clouds.3 mph59%29.92 "HgN/A
12:50 PM55 °FScattered clouds.3 mph67%29.92 "HgN/A
12:20 PM57 °FPassing clouds.2 mph63%29.92 "HgN/A
11:50 AM57 °FPassing clouds.3 mph63%29.95 "HgN/A
11:20 AM55 °FSunny.3 mph72%29.95 "Hg10 mi
10:50 AM55 °FSunny.3 mph77%29.95 "Hg10 mi
10:20 AM54 °FSunny.1 mph82%29.92 "Hg10 mi
9:50 AM52 °FSunny.2 mph82%29.92 "Hg10 mi
9:20 AM52 °FSunny.No wind82%29.92 "Hg10 mi
8:50 AM48 °FSunny.3 mph87%29.92 "Hg10 mi
8:20 AM46 °FSunny.5 mph93%29.89 "Hg10 mi
7:50 AM46 °FSunny.1 mph87%29.86 "Hg10 mi
7:20 AM46 °FClear.5 mph87%29.86 "Hg10 mi
6:50 AM48 °FClear.1 mph87%29.86 "Hg10 mi
6:20 AM48 °FClear.5 mph87%29.83 "Hg10 mi
5:50 AM48 °FClear.6 mph87%29.83 "Hg10 mi
5:20 AM48 °FClear.7 mph87%29.83 "Hg10 mi
4:50 AM48 °FPassing clouds.3 mph87%29.83 "HgN/A
4:20 AM50 °FPassing clouds.7 mph82%29.83 "HgN/A
3:50 AM50 °FPassing clouds.9 mph82%29.83 "HgN/A
3:20 AM48 °FLight rain. Passing clouds.7 mph94%29.80 "HgN/A
2:50 AM48 °FRain. Partly cloudy.7 mph87%29.80 "HgN/A
2:20 AM48 °FPartly cloudy.5 mph87%29.80 "HgN/A
1:50 AM48 °FPartly cloudy.7 mph87%29.80 "HgN/A
1:20 AM48 °FPassing clouds.5 mph87%29.77 "HgN/A
12:20 AM48 °FClear.2 mph87%29.77 "Hg10 mi
11:50 PM
Dec 16
48 °FClear.3 mph87%29.77 "Hg10 mi
11:20 PM48 °FClear.6 mph87%29.77 "Hg10 mi
10:50 PM48 °FClear.7 mph87%29.77 "Hg10 mi
10:20 PM48 °FClear.5 mph94%29.77 "Hg10 mi
Weather by CustomWeather, © 2014

See weather overviewHow to use our weather pages